Погода в Тюлях

Россия / Ханты-Мансийский автономный округ - Югра     60°44′29″N   69°39′00″E
темп.,
°C
ветер,
м/с
пор.,
м/с
влажн.,
%
обл.,
%
осадки,
мм/ч
давл.,
гПа
погр.,
м
18 января, пн
пн1823:00−24з589899 0.1 996182
02:00−23з61097100 0.1 998349
05:00−23зсз71297100 0.3 1001450
08:00−23зсз61194100 0.1 1002460
11:00−26з5997100 0.1 1005187
14:00−25з699693 0.0 1007390
17:00−26з489897 0.1 1009172
20:00−27з4698100 0.1 101093
19 января, вт
вт1923:00−28з4599100 0.1 101280
02:00−29зсз5997100 0.1 1013167
05:00−32зсз569663 0.1 101666
08:00−32зсз459642 0.0 101854
11:00−31з469421 0.0 1020101
14:00−30з34920 0.0 102286
17:00−32зсз33910 0.0 102419
20:00−33з22910 0.0 102519
20 января, ср
ср2023:00−32юз33880 0.0 102519
02:00−32ю34890 0.0 102523
05:00−31ю448814 0.0 102630
08:00−28ююв4689100 0.0 102489
11:00−24ю5787100 0.0 1024186
14:00−21ююв5784100 0.0 1022235
17:00−20юв5886100 0.0 1020181
20:00−19юв6984100 0.0 1018244
21 января, чт
чт2123:00−19юв61181100 0.0 1015282
02:00−20юв6997100 0.1 1011407
05:00−20юв5898100 1.0 1009432
08:00−20юв4798100 0.5 1005175
11:00−21юв4698100 0.7 1003251
14:00−20юв1296100 0.2 1003181
17:00−22ссз1299100 0.3 100220
20:00−22сз3398100 0.1 100343
22 января, пт
пт2223:00−23сз4598100 0.2 1003110
02:00−24зсз5898100 0.1 1005210
05:00−25зсз5897100 0.2 1006235
08:00−28зсз4599100 0.1 100876
11:00−29зсз3499100 0.1 100966
14:00−28зсз239786 0.0 101041
17:00−32с339844 0.0 101119
20:00−34ссв339923 0.0 101220